Simultaneous Nadir Overpasses (SNOs) Predictions

Prediction of SNOs between AQUA and METOP-B Satellite Orbit:

Table of predicted SNOs for the next 14.0 days since TLE Epoch: 5/16/2019
Index Date (AQUA) Time (AQUA) Lat,Lon (AQUA) SZA (AQUA ) Date (METOP-B) Time (METOP-B) Lat,Lon (METOP-B) SZA (METOP-B ) Distance(km) Time Diff (sec)
1 05/17/2019 06:14:46 -73.81, -99.36 125.49 05/17/2019 06:13:46 -73.82, -99.42 125.48 1.99 60
2 05/17/2019 07:04:16 73.91, 68.07 54.61 05/17/2019 07:04:24 73.89, 68.09 54.59 2.35 8
3 05/17/2019 07:53:48 -74.27,-125.13 125.01 05/17/2019 07:54:58 -74.29,-123.59 125.05 46.21 70
4 05/20/2019 01:49:00 -73.82, -32.94 126.09 05/20/2019 01:48:09 -73.82, -33.00 126.09 1.93 51
5 05/20/2019 02:38:29 73.87, 134.58 53.96 05/20/2019 02:38:47 73.89, 134.50 53.97 3.06 18
6 05/20/2019 03:28:09 -74.64, -59.57 125.23 05/20/2019 03:29:14 -74.63, -56.28 125.33 97.02 65
7 05/22/2019 21:23:14 -73.84, 33.46 126.64 05/22/2019 21:22:32 -73.82, 33.41 126.65 2.54 42
8 05/22/2019 22:12:43 73.90,-159.03 53.41 05/22/2019 22:13:10 73.89,-159.09 53.40 2.34 27
9 05/25/2019 16:57:27 -73.87, 99.85 127.14 05/25/2019 16:56:53 -73.87, 99.94 127.13 2.81 34
10 05/25/2019 17:46:56 73.93, -92.66 52.92 05/25/2019 17:47:31 73.93, -92.58 52.92 2.49 35
11 05/28/2019 12:31:40 -73.84, 166.34 127.64 05/28/2019 12:31:16 -73.87, 166.34 127.61 3.02 24
12 05/28/2019 13:21:09 73.92, -26.18 52.44 05/28/2019 13:21:54 73.93, -26.18 52.44 1.40 45




NCC Satellite Simultaneous Nadir Overpasses (SNOs) Prediction Service
